Location: Dürabuch
(48.2640°N, 11.2185°E)
Time: 01:42:41
(UTC+00:00)

Cosmos 2082 Rocket - Pass Details

Date: 23 May 2024
Orbit: 832 x 853 km, 71.0° (Epoch: 13 June)

Event Time Altitude Azimuth Distance (km) Brightness Sun altitude
Exits shadow 00:07:03 39° 193° (SSW) 1,269 2.6 -20.0°
Maximum altitude 00:09:17 77° 115° (ESE) 881 2.2 -19.9°
Drops below altitude 10° 00:15:01 10° 30° (NNE) 2,492 5.8 -19.7°
Sets 00:17:29 0° 29° (NNE) 3,431 6.8 -19.6°
